Regional Weather Roundup
Issued by NWS Green Bay, WI

Home | Current Version | Previous Version | Graphics & Text | Print | Product List | Glossary Off
Versions: 1 2 3 4 5 6 7 8 9 10 11 12 13 14 15 16 17 18 19 20 21 22 23 24 25 26 27 28 29 30 31 32 33 34 35 36 37 38 39 40 41 42 43 44 45 46 47 48 49 50

000
ASUS43 KGRB 200800
RWRGRB

NORTH-CENTRAL AND NORTHEAST WISCONSIN REGIONAL WEATHER ROUNDUP
NATIONAL WEATHER SERVICE GREEN BAY WI
200 AM CST TUE FEB 20 2018

WIZ005-009-010>012-018-019-200900-
NORTH CENTRAL WISCONSIN

CITY           SKY/WX    TMP DP  RH WIND       PRES   REMARKS
IRONWOOD       CLOUDY    17  15  92 NE9       29.89F WCI   6
MANITOWISH WTR NOT AVBL
ARBOR VITAE    NOT AVBL
EAGLE RIVER    CLOUDY    20  19  98 NE7       29.83F FOG
LAND O LAKES   CLOUDY    20  18  95 NE6       29.86F FOG
RHINELANDER    CLOUDY    21  20  96 NE6       29.82F FOG
PHILLIPS       CLOUDY    17  17  98 NE8       29.80F WCI   7
ANTIGO         NOT AVBL
TOMAHAWK       NOT AVBL
MERRILL        NOT AVBL
$$

WIZ013-073-200900-
NORTHEAST WISCONSIN

CITY           SKY/WX    TMP DP  RH WIND       PRES   REMARKS
IRON MOUNTAIN  CLOUDY    24  21  88 N8        29.84F FOG
MARINETTE      MIX PCPN  30  29  96 NE13      29.83F FOG
$$

WIZ017-030-035>037-045-200900-
CENTRAL WISCONSIN

CITY           SKY/WX    TMP DP  RH WIND       PRES   REMARKS
MEDFORD        NOT AVBL
WAUSAU         CLOUDY    26  25  96 NE5       29.79S FOG
MOSINEE        NOT AVBL
MARSHFIELD     CLOUDY    25  25 100 NE5       29.79S FOG
WISC RAPIDS    CLOUDY    27  24  89 NE5       29.82R FOG
STEVENS POINT  NOT AVBL
WAUPACA        CLOUDY    30  28  92 NE6       29.82R FOG
SHAWANO        CLOUDY    29  27  93 NE7       29.82F FOG
CLINTONVILLE   CLOUDY    28  26  95 NE7       29.82S FOG
WAUTOMA        CLOUDY    29  28  96 NE7       29.81R FOG
$$

WIZ038-039-048-051-200900-
FOX VALLEY

CITY           SKY/WX    TMP DP  RH WIND       PRES   REMARKS
NWS GREEN BAY  CLOUDY    30  28  92 N10       29.81S FOG
APPLETON       NOT AVBL
OSHKOSH        CLOUDY    29  28  96 N10       29.79F FOG
FOND DU LAC    CLOUDY    31  28  89 N8        29.79R
$$

WIZ022-050-052-200900-
EAST CENTRAL WISCONSIN

CITY           SKY/WX    TMP DP  RH WIND       PRES   REMARKS
EPHRAIM        NOT AVBL
WASHINGTON ISL NOT AVBL
STURGEON BAY   FOG       33  32  96 NE8       29.80F VSB 3/4
MANITOWOC      MIX PCPN  33  33 100 NW7       29.80S VSB 1
SHEBOYGAN      CLOUDY    34  34 100 CALM      29.78F FOG
$$

LMZ563-521-522-541>543-200900-
LAKESHORE

STATION/POSITION TIME  TEMP    WIND        PRES    VSBY  WAVE
                       AIR SEA DIR/SP/G                  HT/PER
                 (UTC) (F)     (DEG/KT/KT) (MB)    (MI)  (FT/S)
SHEBOYGAN LKSHOR 0700   36     340/  9/ 10 1009.3R
KEWAUNEE LKSHORE 0730   34     350/  6/  9 1008.4F
NORTHPORT PIER   0740   31                 1010.5S
SISTER BAY LKSHO 0720   33     110/  6/ 14   N/A
MENOMINEE LKSHOR 0730   29      10/ 22/ 25 1009.9S
$$




USA.gov is the U.S. government's official web portal to all federal, state and local government web resources and services.